« Back
NWS Peachtree City, Ga » Text Product » GA Regional Weather Roundup


Printer-friendly Version
Current Version              Previous Versions:   1  2  3  4  5  6  7  8  9  

Regional Weather Roundup

390
ASUS42 KFFC 290303
RWRGA
WEATHER ROUNDUP FOR GEORGIA
NATIONAL WEATHER SERVICE PEACHTREE CITY GA
1100 PM EDT THU JUL 28 2016

NOTE: "FAIR" INDICATES FEW OR NO CLOUDS BELOW 12,000 FEET WITH NO
SIGNIFICANT WEATHER AND/OR OBSTRUCTIONS TO VISIBILITY.

* = USE WITH CAUTION. THE STATIONS MARKED WITH AN ASTERISK MAY NOT
REPORT WEATHER SUCH AS PRECIPITATION, FOG, OR THUNDER AND ARE NOT
QUALITY CONTROLLED BY NWS.

THE REMARK "TC" DENOTES TEMPERATURE READING IN DEGREES CELSIUS.

GAZ001>058-290400-
NORTH GEORGIA

CITY           SKY/WX    TMP DP  RH WIND       PRES   REMARKS
ATLANTA        MOCLDY    80  71  74 W7        30.02R
ATHENS         CLEAR     77  73  87 CALM      29.99S
CHAMBLEE       PTCLDY    78  70  76 W6        30.01S
PEACHTREE CITY MOCLDY    81  71  71 W5        30.03R
ROME           PTCLDY    76  71  85 W3        30.00R
WEST ATLANTA   MOCLDY    78  71  79 W7        30.01R
GAINESVILLE    CLEAR     76  72  87 W9        30.03S
CARTERSVILLE   PTCLDY    74  73  97 CALM      30.02R


CITY           SKY/WX    TMP DP  RH WIND       PRES   REMARKS
DALTON*        CLOUDY    73  73 100 SE3       30.00R
MARIETTA       MOCLDY    76  74  91 W6        30.02R
CANTON*        PTCLDY    75  66  73 W3        30.03S
BLAIRSVILLE*     N/A    N/A N/A N/A MISG      30.04S
$$

GAZ059>098-102>109-290400-
CENTRAL GEORGIA

CITY           SKY/WX    TMP DP  RH WIND       PRES   REMARKS
AUGUSTA-BUSH   CLEAR     84  66  54 SW5       29.95S
AUGUSTA-DANIEL CLEAR     88  66  48 CALM      29.97S HX  90
COLUMBUS       PTCLDY    84  68  58 NW8       30.02R
MACON          CLEAR     83  64  52 W3        30.00R


CITY           SKY/WX    TMP DP  RH WIND       PRES   REMARKS
LAGRANGE*      MOCLDY    81  73  75 W5        30.03S
MILLEDGEVILLE* PTCLDY    82  72  69 CALM      29.98F
$$

GAZ099>101-110>166-290400-
SOUTH GEORGIA

CITY           SKY/WX    TMP DP  RH WIND       PRES   REMARKS
SAVANNAH       CLOUDY    85  76  74 S9        29.99R HX  94
VALDOSTA       CLEAR     78  72  81 CALM      30.04R
ALMA           CLEAR     81  71  71 SW5       30.01R
ST SIMONS      CLOUDY    85  74  69 SW6       30.01R HX  92
ALBANY         CLEAR     82  71  69 SW5       30.04R
BRUNSWICK      CLOUDY    86  77  74 S9        30.02R HX  97


CITY           SKY/WX    TMP DP  RH WIND       PRES   REMARKS
BAINBRIDGE*    CLEAR     79  73  83 CALM      30.04R
MOULTRIE*      CLEAR     81  72  74 CALM      30.05R
VIDALIA*       CLEAR     82  64  54 SW3       30.00S
WAYCROSS*      CLEAR     87  76  68 W7        30.02R HX  97
DOUGLAS*       CLEAR     81  70  69 SW5       30.03R
$$




USA.gov is the U.S. government's official web portal to all federal, state and local government web resources and services.